TimeCDT,TemperatureF,Dew PointF,Humidity,Sea Level PressureIn,VisibilityMPH,Wind Direction,Wind SpeedMPH,Gust SpeedMPH,PrecipitationIn,Events,Conditions,WindDirDegrees,DateUTC
12:02 AM,62.6,62.6,100,29.72,2.5,NE,8.1,-,0.05,Rain,Heavy Rain,40,2012-10-01 05:02:00
12:17 AM,62.6,62.6,100,29.70,3.0,NE,8.1,-,0.09,Rain,Light Rain,40,2012-10-01 05:17:00
12:53 AM,63.0,63.0,100,29.67,3.0,ENE,10.4,-,0.11,Rain,Light Rain,60,2012-10-01 05:53:00
1:02 AM,62.6,62.6,100,29.68,2.0,ENE,9.2,-,0.02,Rain,Rain,60,2012-10-01 06:02:00
1:11 AM,62.6,62.6,100,29.68,2.0,ENE,11.5,18.4,0.06,Rain,Rain,60,2012-10-01 06:11:00
1:16 AM,62.6,62.6,100,29.67,3.0,ENE,10.4,18.4,0.06,Rain,Light Rain,60,2012-10-01 06:16:00
1:23 AM,62.6,62.6,100,29.66,4.0,ENE,11.5,19.6,0.07,Rain,Light Rain,60,2012-10-01 06:23:00
1:53 AM,63.0,62.1,97,29.64,3.0,ENE,10.4,-,0.13,Rain,Heavy Rain,60,2012-10-01 06:53:00
2:53 AM,63.0,63.0,100,29.60,6.0,ENE,9.2,-,0.06,Rain,Light Rain,60,2012-10-01 07:53:00
3:17 AM,62.6,62.6,100,29.62,1.8,NE,5.8,-,0.16,Rain,Heavy Rain,50,2012-10-01 08:17:00
3:32 AM,62.6,62.6,100,29.60,3.0,ENE,8.1,-,0.27,Rain,Light Rain,60,2012-10-01 08:32:00
4:22 AM,64.4,64.4,100,29.59,1.8,ESE,8.1,-,0.22,Rain,Rain,110,2012-10-01 09:22:00
4:38 AM,64.4,64.4,100,29.59,3.0,East,9.2,-,0.45,Rain,Rain,80,2012-10-01 09:38:00
4:53 AM,64.9,64.9,100,29.57,5.0,ENE,6.9,-,0.46,Rain,Light Rain,70,2012-10-01 09:53:00
5:53 AM,66.0,64.9,96,29.57,10.0,East,8.1,-,0.03,,Overcast,80,2012-10-01 10:53:00
6:41 AM,66.2,66.2,100,29.58,10.0,East,6.9,-,N/A,,Overcast,90,2012-10-01 11:41:00
7:26 AM,66.2,66.2,100,29.57,2.5,Variable,4.6,-,0.05,Rain,Rain,0,2012-10-01 12:26:00
7:28 AM,66.2,66.2,100,29.57,3.0,East,8.1,-,0.05,Rain,Light Rain,90,2012-10-01 12:28:00
7:35 AM,66.2,66.2,100,29.57,4.0,East,5.8,-,0.05,Rain,Light Rain,100,2012-10-01 12:35:00
7:49 AM,68.0,66.2,94,29.57,10.0,East,5.8,-,0.05,,Overcast,90,2012-10-01 12:49:00
7:53 AM,68.0,66.9,96,29.55,10.0,East,5.8,-,0.05,,Overcast,100,2012-10-01 12:53:00
8:44 AM,69.8,68.0,94,29.57,6.0,Calm,Calm,-,0.01,Rain,Light Rain,0,2012-10-01 13:44:00
8:53 AM,69.1,69.1,100,29.56,7.0,SE,3.5,-,0.01,Rain,Light Rain,140,2012-10-01 13:53:00
9:53 AM,72.0,70.0,93,29.56,2.5,SSE,6.9,-,0.06,Rain,Heavy Rain,150,2012-10-01 14:53:00
10:02 AM,71.6,71.6,100,29.57,1.5,SSE,6.9,-,0.06,Rain,Heavy Rain,150,2012-10-01 15:02:00
10:10 AM,71.6,71.6,100,29.55,2.0,SE,9.2,-,0.08,Rain,Light Rain,130,2012-10-01 15:10:00
10:16 AM,73.4,71.6,94,29.54,5.0,SE,10.4,-,0.08,Rain,Light Rain,130,2012-10-01 15:16:00
10:53 AM,73.9,72.0,93,29.54,10.0,SSE,13.8,20.7,0.09,,Overcast,160,2012-10-01 15:53:00
11:06 AM,73.4,71.6,94,29.55,2.5,SE,12.7,-,0.04,Rain,Heavy Rain,140,2012-10-01 16:06:00
11:21 AM,73.4,71.6,94,29.55,8.0,SE,10.4,-,0.04,Rain,Light Rain,140,2012-10-01 16:21:00
11:32 AM,73.4,71.6,94,29.54,10.0,SE,9.2,-,0.04,Thunderstorm,Overcast,140,2012-10-01 16:32:00
11:46 AM,75.2,73.4,94,29.54,10.0,SE,12.7,17.3,0.04,,Overcast,140,2012-10-01 16:46:00
11:53 AM,75.0,72.0,90,29.52,10.0,SE,9.2,17.3,0.04,,Overcast,140,2012-10-01 16:53:00
12:53 PM,78.1,72.0,81,29.50,10.0,SSE,13.8,-,N/A,,Overcast,160,2012-10-01 17:53:00
1:06 PM,78.8,71.6,78,29.51,10.0,SSE,15.0,21.9,N/A,,Scattered Clouds,160,2012-10-01 18:06:00
1:53 PM,75.9,71.1,85,29.50,10.0,South,9.2,-,0.01,,Mostly Cloudy,190,2012-10-01 18:53:00
2:39 PM,73.4,71.6,94,29.52,1.8,SSW,15.0,25.3,0.08,Rain-Thunderstorm,Heavy Thunderstorms and Rain,200,2012-10-01 19:39:00
2:53 PM,73.9,72.0,93,29.50,1.2,South,12.7,19.6,0.33,Rain-Thunderstorm,Light Rain,180,2012-10-01 19:53:00
2:59 PM,73.4,71.6,94,29.52,10.0,South,11.5,18.4,0.00,Thunderstorm,Overcast,190,2012-10-01 19:59:00
3:20 PM,73.4,71.6,94,29.52,10.0,SW,12.7,23.0,0.00,,Overcast,230,2012-10-01 20:20:00
3:35 PM,75.2,69.8,83,29.54,10.0,SW,11.5,21.9,0.00,,Overcast,220,2012-10-01 20:35:00
3:53 PM,75.9,70.0,82,29.52,10.0,SSW,15.0,20.7,0.00,,Mostly Cloudy,210,2012-10-01 20:53:00
4:53 PM,75.0,68.0,79,29.53,10.0,SW,11.5,20.7,N/A,,Scattered Clouds,230,2012-10-01 21:53:00
5:53 PM,72.0,66.0,81,29.55,10.0,SW,10.4,-,N/A,,Partly Cloudy,230,2012-10-01 22:53:00
6:34 PM,71.6,66.2,83,29.58,10.0,WSW,11.5,-,N/A,,Mostly Cloudy,240,2012-10-01 23:34:00
6:53 PM,70.0,66.0,87,29.57,10.0,WSW,9.2,-,N/A,,Mostly Cloudy,250,2012-10-01 23:53:00
7:06 PM,69.8,64.4,83,29.59,10.0,SW,13.8,18.4,N/A,,Scattered Clouds,230,2012-10-02 00:06:00
7:20 PM,69.8,64.4,83,29.60,10.0,SW,12.7,-,N/A,,Mostly Cloudy,220,2012-10-02 00:20:00
7:53 PM,68.0,64.0,87,29.60,10.0,WSW,6.9,-,N/A,,Overcast,240,2012-10-02 00:53:00
8:53 PM,66.9,64.0,90,29.62,10.0,West,10.4,-,N/A,,Mostly Cloudy,260,2012-10-02 01:53:00
8:58 PM,66.2,64.4,94,29.64,10.0,WNW,13.8,-,N/A,,Mostly Cloudy,290,2012-10-02 01:58:00
9:53 PM,64.9,63.0,93,29.65,10.0,West,5.8,-,N/A,,Overcast,280,2012-10-02 02:53:00
10:10 PM,64.4,62.6,94,29.67,10.0,West,6.9,-,N/A,,Overcast,270,2012-10-02 03:10:00
10:53 PM,64.0,62.1,93,29.66,10.0,WSW,6.9,-,N/A,,Overcast,250,2012-10-02 03:53:00
11:15 PM,64.4,62.6,94,29.67,10.0,West,4.6,-,N/A,,Overcast,260,2012-10-02 04:15:00
11:53 PM,64.0,62.1,93,29.65,10.0,West,3.5,-,N/A,,Overcast,270,2012-10-02 04:53:00